Regional Weather Roundup
Issued by NWS

Home | Current Version | Previous Version | Text Only | Print | Product List | Glossary Off
Versions: 1 2 3 4 5 6 7 8 9 10 11 12 13 14 15 16 17 18 19 20 21 22 23 24 25 26 27 28 29 30 31 32 33 34 35 36 37 38 39 40 41 42 43 44 45 46 47 48 49 50

000
ASUS44 KMEG 170000
RWRTN
TENNESSEE HOURLY STATE WEATHER ROUNDUP
NATIONAL WEATHER SERVICE MEMPHIS TN
700 PM CDT TUE SEP 16 2014

TNZ002-004-019-021-049-052-054-088>092-170100-
WEST TENNESSEE

CITY           SKY/WX    TMP DP  RH WIND       PRES   REMARKS
MEMPHIS INTL   MOCLDY    75  66  73 NE6       30.03F
NWS MEMPHIS      N/A     73 N/A N/A MISG        N/A
JACKSON        MOCLDY    70  62  76 NE5       30.05F
DYERSBURG      CLOUDY    70  52  52 N7        30.07F
PARIS          CLOUDY    64  57  77 NE5       30.07F
SAVANNAH       CLOUDY    70  66  88 N5        30.05S
$$

TNZ008-025-027-028-033-062-065-066-170100-
NORTH MIDDLE TENNESSEE

CITY           SKY/WX    TMP DP  RH WIND       PRES   REMARKS
NASHVILLE      PTCLDY    69  60  73 N5        30.05S
CLARKSVILLE    CLEAR     64  54  69 N5        30.06F
SMYRNA         CLOUDY    70  63  78 NE3       30.06S
COOKEVILLE     CLOUDY    68  64  88 CALM      30.05F
CROSSVILLE     CLOUDY    65  60  84 CALM      30.08F
$$

TNZ061-075-076-078-094-096-097-170100-
SOUTH MIDDLE TENNESSEE

CITY           SKY/WX    TMP DP  RH WIND       PRES   REMARKS
SHELBYVILLE    MOCLDY    68  64  88 CALM      30.06S
$$

TNZ017-018-042-046-047-170100-
NORTHEAST TENNESSEE

CITY           SKY/WX    TMP DP  RH WIND       PRES   REMARKS
TRI CITIES     PTCLDY    69  58  67 W5        30.02S
$$

TNZ012-013-036-069-073-074-170100-
CENTRAL EAST TENNESSEE

CITY           SKY/WX    TMP DP  RH WIND       PRES   REMARKS
KNOXVILLE      MOCLDY    72  64  76 N6        30.01S
OAK RIDGE      PTCLDY    71  62  73 CALM      30.04S
$$

TNZ083-085-099-170100-
SOUTHEAST TENNESSEE

CITY           SKY/WX    TMP DP  RH WIND       PRES   REMARKS
CHATTANOOGA    PTCLDY    77  66  68 N8        30.00S
$$

SKY/WX REPORTED AS FAIR MEANS FEW OR NO CLOUDS BELOW
12 THOUSAND FEET.




USA.gov is the U.S. government's official web portal to all federal, state and local government web resources and services.